User: anonymous   Login
Location: NJAA Observatory
(40.6819°N, 74.8979°W)
Time: 08:10:05
(UTC-04:00)
Language:

Cosmos 1461 - Orbit

View from above orbital plane
View from above orbital plane
View from above satellite
View from above satellite

Ground track
Ground track

The orbit data is extracted from the following two-line orbital elements,

1 14064U 83044A   17116.43020475 +.00001341 +00000-0 +13294-3 0  9996
2 14064 065.0010 084.9455 0086212 060.5487 300.4196 14.93565590715624
Epoch (UTC): 26 April 2017 10:19:29
Eccentricity: 0.0086212
inclination: 65.0010°
perigee height: 527 km
apogee height: 647 km
right ascension of ascending node: 84.9455°
argument of perigee: 60.5487°
revolutions per day: 14.93565590
mean anomaly at epoch: 300.4196°
orbit number at epoch: 71562

The dashed part of the orbit path shows where the satellite is in the earth's shadow,  

DLR